EW6089 Weather Reports


time (UTC)temp
F
wind
direction
speed
knots
gust
knots
rain 1hr
in
rain 24hr
in
rain mn
in
humidity
%
barometer
mb
20260505034017 69 0.0 0.9 0.00 0.00 0.00 59 1009.8
20260505033015 69 0.0 0.9 0.00 0.00 0.00 59 1009.6
20260505032017 71 0.0 0.0 0.00 0.00 0.00 57 1009.4
20260505031017 71 0.0 0.0 0.00 0.00 0.00 55 1009.2
20260505030017 72 0.0 0.0 0.00 0.00 0.00 53 1009.2
20260505025017 73 0.0 0.9 0.00 0.00 0.00 50 1009.1
20260505024017 73 0.0 0.0 0.00 0.00 0.00 49 1009.0
20260505023017 74 0.0 0.0 0.00 0.00 0.00 47 1009.1
20260505022017 75 0.0 0.0 0.00 0.00 0.00 46 1009.1
20260505021038 75 0.0 0.9 0.00 0.00 0.00 45 1009.1
20260505020017 75 0.0 1.7 0.00 0.00 0.00 44 1009.1
20260505015017 76 0.0 0.9 0.00 0.00 0.00 44 1009.0
20260505014018 76 0.0 0.9 0.00 0.00 0.00 44 1009.1
20260505013017 76 0.0 0.9 0.00 0.00 0.00 45 1009.1
20260505012017 77 0.0 0.9 0.00 0.00 0.00 41 1009.2
20260505011018 77 0.0 3.5 0.00 0.00 0.00 41 1009.3
20260505010018 78 0.0 3.5 0.00 0.00 0.00 41 1009.3
20260505005017 78 0.0 2.6 0.00 0.00 0.00 38 1009.3
20260505004017 78 0.0 3.5 0.00 0.00 0.00 39 1009.3
20260505003038 78 0.0 1.7 0.00 0.00 0.00 37 1009.3
20260505002018 79 68 0.9 4.3 0.00 0.00 0.00 38 1009.4
20260505001017 79 0.0 3.5 0.00 0.00 0.00 39 1009.4
20260505000017 79 158 0.9 7.0 0.00 0.00 0.00 39 1009.5
20260504235017 79 113 0.9 3.5 0.00 0.00 0.00 38 1009.5
20260504234017 79 135 0.9 3.5 0.00 0.00 0.00 38 1009.6
20260504233018 79 0.0 3.5 0.00 0.00 0.00 39 1009.5
20260504232037 79 90 0.9 3.5 0.00 0.00 0.00 39 1009.6
20260504231017 79 113 0.9 2.6 0.00 0.00 0.00 39 1009.6
20260504230037 79 113 0.9 4.3 0.00 0.00 0.00 41 1009.6
20260504225017 79 158 0.9 4.3 0.00 0.00 0.00 40 1009.7
20260504224037 79 158 0.9 4.3 0.00 0.00 0.00 38 1009.8
20260504223037 79 225 0.9 3.5 0.00 0.00 0.00 39 1009.9
20260504222037 79 158 0.9 7.0 0.00 0.00 0.00 39 1010.1
20260504221017 79 158 0.9 4.3 0.00 0.00 0.00 38 1010.2
20260504220017 80 45 0.9 7.0 0.00 0.00 0.00 39 1010.3
20260504215037 80 158 0.9 3.5 0.00 0.00 0.00 37 1010.3
20260504214016 80 158 0.9 4.3 0.00 0.00 0.00 38 1010.4
20260504213037 80 0.0 2.6 0.00 0.00 0.00 39 1010.3
20260504212017 79 45 0.9 4.3 0.00 0.00 0.00 38 1010.4
20260504211017 79 158 0.9 2.6 0.00 0.00 0.00 40 1010.3
20260504210017 79 158 0.9 3.5 0.00 0.00 0.00 39 1010.4
20260504205017 78 0.0 1.7 0.00 0.00 0.00 40 1010.5
20260504204017 78 68 1.7 4.3 0.00 0.00 0.00 40 1010.6
20260504203017 77 158 0.9 4.3 0.00 0.00 0.00 41 1010.6
20260504202016 77 135 0.9 4.3 0.00 0.00 0.00 41 1010.6
20260504201057 76 0.0 3.5 0.00 0.00 0.00 42 1010.7
20260504200037 76 0.0 2.6 0.00 0.00 0.00 42 1010.7
20260504195017 76 45 0.9 3.5 0.00 0.00 0.00 42 1010.6
20260504194016 75 0.0 1.7 0.00 0.00 0.00 44 1010.7
20260504193017 75 135 0.9 4.3 0.00 0.00 0.00 45 1010.9
20260504192017 75 158 0.9 3.5 0.00 0.00 0.00 44 1010.9
20260504191016 74 158 0.9 3.5 0.00 0.00 0.00 45 1011.0
20260504190017 74 113 0.9 4.3 0.00 0.00 0.00 44 1011.0
20260504185016 74 158 0.9 3.5 0.00 0.00 0.00 46 1011.1
20260504184017 74 158 0.9 2.6 0.00 0.00 0.00 46 1011.1
20260504183016 73 158 0.9 3.5 0.00 0.00 0.00 47 1011.1
20260504182016 73 135 0.9 3.5 0.00 0.00 0.00 48 1011.1
20260504181016 73 0.0 1.7 0.00 0.00 0.00 49 1011.1
20260504180017 72 158 0.9 2.6 0.00 0.00 0.00 48 1011.2
20260504175017 72 0.0 1.7 0.00 0.00 0.00 51 1011.1
20260504174016 71 158 0.9 2.6 0.00 0.00 0.00 50 1011.1
20260504173016 71 135 0.9 2.6 0.00 0.00 0.00 53 1011.1
20260504172017 70 0 0.9 2.6 0.00 0.00 0.00 52 1011.1
20260504171056 69 0.0 2.6 0.00 0.00 0.00 56 1011.1
20260504151017 56 0.0 0.0 0.00 0.00 0.00 83 1010.7
20260504141016 52 0.0 0.0 0.00 0.00 0.00 91 1010.4
20260504081016 56 0.0 0.0 0.00 0.00 0.00 83 1009.8
20260504050018 63 0.0 0.0 0.00 0.00 0.00 70 1009.8
20260504045017 64 0.0 0.0 0.00 0.00 0.00 71 1009.8
20260504044017 64 0.0 0.0 0.00 0.00 0.00 69 1009.7
20260504043017 65 0.0 0.0 0.00 0.00 0.00 69 1009.7
20260504042017 65 0.0 0.0 0.00 0.00 0.00 71 1009.7
20260504041017 66 0.0 0.0 0.00 0.00 0.00 69 1009.6
20260504040017 67 0.0 0.0 0.00 0.00 0.00 67 1009.5
20260504035017 68 0.0 0.0 0.00 0.00 0.00 67 1009.5